Hourly Data Report for September 01, 2017

All times are specified in Local Standard Time (LST). Add 1 hour to adjust for Daylight Saving Time where and when it is observed.

NORTH CAPE
PRINCE EDWARD ISLAND

47°03'29.000" N
63°59'55.000" W
7.60 m
8300516
71987
WNE

Download Data

Hourly Data (September 2017)
Hourly Data Report for September 1, 2017
Temp Definition
°C
Dew Point Temp Definition
°C
Rel Hum Definition
%
Wind Dir Definition
10's deg

Wind Spd Definition
km/h
Visibility Definition
km
Stn Press Definition
kPa
Hmdx Definition


Wind Chill Definition


Weather Definition


TIME
00:00 14.0 9.5 75 29 40   100.15     LegendNANA
01:00 13.2 8.7 74 30 41   100.20     LegendNANA
02:00 13.0 8.5 74 28 40   100.21     LegendNANA
03:00 12.5 7.8 73 29 43   100.21     LegendNANA
04:00 12.5 7.5 72 29 46   100.23     LegendNANA
05:00 12.5 7.2 70 28 41   100.27     LegendNANA
06:00 12.4 7.5 72 28 38   100.31     LegendNANA
07:00 12.7 7.8 72 27 32   100.30     LegendNANA
08:00 12.9 8.3 74 26 37   100.31     LegendNANA
09:00 12.7 6.9 67 27 40   100.32     LegendNANA
10:00 12.7 6.6 67 26 35   100.36     LegendNANA
11:00 13.5 7.5 67 26 38   100.35     LegendNANA
12:00 13.7 6.9 64 25 31   100.32     LegendNANA
13:00 14.9 7.5 61 25 35   100.34     LegendNANA
14:00 14.8 7.4 61 26 30   100.32     LegendNANA
15:00 14.8 7.3 61 27 39   100.34     LegendNANA
16:00 14.9 7.7 62 26 31   100.35     LegendNANA
17:00 13.9 7.2 64 27 25   100.38     LegendNANA
18:00 13.7 7.0 64 27 31   100.43     LegendNANA
19:00 13.0 6.9 67 28 30   100.49     LegendNANA
20:00 13.1 8.0 71 29 33   100.54     LegendNANA
21:00 13.8 7.9 68 29 35   100.56     LegendNANA
22:00 13.2 9.1 76 33 36   100.60     LegendNANA
23:00 12.5 9.4 81 34 38   100.67     LegendNANA

Notes on Data Quality.

Legend

  • E = Estimated
  • M = Missing
  • NA = Not Available
  • ‡ = Partner data that is not subject to review by the National Climate Archives
Date modified: